Weather History for Alexandria, MN

Change the Weather History Date:

Saturday, May 30, 2009

  Actual Average Record
Temperature  
Mean Temperature 58 °F -  
Max Temperature 66 °F 71 °F 90 °F (1988)
Min Temperature 50 °F 50 °F 41 °F (2012)
Degree Days  
Heating Degree Days 7    
Growing Degree Days 8 (Base 50)    
Moisture  
Dew Point 35 °F    
Average Humidity 44    
Maximum Humidity 83    
Minimum Humidity 23    
Precipitation  
Precipitation 0.00 in - - ()
Sea Level Pressure  
Sea Level Pressure 29.95 in    
Wind  
Wind Speed 9 mph (NNW)    
Max Wind Speed 20 mph    
Max Gust Speed 29 mph    
Visibility 10 miles    
Events      
Averages and records for this station are not official NWS values.
T = Trace of Precipitation, MM = Missing Value Source: NWS Daily Summary

Daily Weather History Graph

Daily Weather History Graph

Search for Another Location

Airport:

Trip Planner

Search our weather history database for the weather conditions in past years. The results will help you decide how hot, cold, wet, or windy it might be!

Date:

Astronomy

May. 30, 2009 Rise Set
Actual Time 5:35 AM CDT 9:02 PM CDT
Civil Twilight 4:58 AM CDT 9:40 PM CDT
Nautical Twilight 4:10 AM CDT 10:29 PM CDT
Astronomical Twilight 3:07 AM CDT 11:32 PM CDT
Moon 12:39 PM CDT (5/30) 1:28 AM CDT (5/30)
Length of Visible Light 16h 41m
Length of Day
15h 27m
Waxing Crescent, 45% of the Moon is Illuminated
May 30
Waxing Crescent
May 30
First Quarter
Jun 7
Full
Jun 15
Last Quarter
Jun 22
New

Hourly Weather History & Observations

Time (CDT) Temp. Dew Point Humidity Pressure Visibility Wind Dir Wind Speed Gust Speed Precip Events Conditions
12:53 AM 60.1 °F 48.0 °F 64% 29.83 in 10.0 mi Calm Calm - N/A   Mostly Cloudy
1:53 AM 55.9 °F 46.9 °F 72% 29.83 in 10.0 mi Calm Calm - N/A   Clear
2:53 AM 55.0 °F 50.0 °F 83% 29.84 in 10.0 mi NW 4.6 mph - N/A   Mostly Cloudy
3:53 AM 57.0 °F 42.1 °F 57% 29.86 in 10.0 mi North 10.4 mph - N/A   Partly Cloudy
4:53 AM 54.0 °F 41.0 °F 62% 29.89 in 10.0 mi North 11.5 mph - N/A   Clear
5:53 AM 52.0 °F 39.0 °F 61% 29.92 in 10.0 mi North 10.4 mph - N/A   Clear
6:53 AM 53.1 °F 37.0 °F 55% 29.94 in 10.0 mi North 12.7 mph - N/A   Clear
7:53 AM 55.0 °F 35.1 °F 47% 29.96 in 10.0 mi North 12.7 mph 21.9 mph N/A   Clear
8:53 AM 57.0 °F 32.0 °F 39% 29.98 in 10.0 mi North 15.0 mph - N/A   Clear
9:53 AM 59.0 °F 32.0 °F 36% 29.98 in 10.0 mi NNW 10.4 mph - N/A   Clear
10:53 AM 61.0 °F 30.9 °F 32% 29.98 in 10.0 mi North 19.6 mph 24.2 mph N/A   Clear
11:53 AM 63.0 °F 32.0 °F 31% 29.98 in 10.0 mi NNW 19.6 mph 25.3 mph N/A   Clear
12:53 PM 63.0 °F 30.0 °F 29% 29.99 in 10.0 mi NNW 17.3 mph 27.6 mph N/A   Clear
1:53 PM 64.9 °F 30.9 °F 28% 29.99 in 10.0 mi NW 17.3 mph 21.9 mph N/A   Clear
2:53 PM 64.9 °F 28.0 °F 25% 29.99 in 10.0 mi NNW 18.4 mph 28.8 mph N/A   Clear
3:53 PM 66.0 °F 27.0 °F 23% 29.98 in 10.0 mi NNW 18.4 mph 27.6 mph N/A   Clear
4:53 PM 66.0 °F 28.9 °F 25% 29.97 in 10.0 mi NNW 17.3 mph 21.9 mph N/A   Clear
5:53 PM 66.0 °F 30.0 °F 26% 29.97 in 10.0 mi NW 15.0 mph 23.0 mph N/A   Clear
6:53 PM 64.9 °F 30.0 °F 27% 29.96 in 10.0 mi NNW 13.8 mph 21.9 mph N/A   Clear
7:53 PM 63.0 °F 30.0 °F 29% 29.97 in 10.0 mi NNW 10.4 mph - N/A   Clear
8:53 PM 59.0 °F 33.1 °F 38% 29.96 in 10.0 mi North 4.6 mph - N/A   Clear
9:53 PM 55.0 °F 34.0 °F 45% 29.98 in 10.0 mi Calm Calm - N/A   Clear
10:53 PM 50.0 °F 37.9 °F 63% 29.98 in 10.0 mi SSE 3.5 mph - N/A   Clear
11:53 PM 51.1 °F 36.0 °F 56% 29.97 in 10.0 mi Calm Calm - N/A   Clear